Terug naar catalogus

COSMOS 1375 DEB

ActiefLEO
NORAD 17806·DEBRIS·🇷🇺 Russia

Gelanceerd Jun 6, 1982 vanaf Plesetsk Cosmodrome

Loading…

Volgende Passages (komende 24 uur)

TLE

VersSource: Space-Track

Epoch: Sep 14, 2026, 01:34 UTC

1 17806U 82055AY  26257.06542789 -.00000064  00000-0  16299-4 0  9997
2 17806  65.8335 213.6407 0048787 125.1994 323.6367 13.80810469 58960

Volg COSMOS 1375 DEB in realtime met AllMySat

Download on the App Store